COSMOS 2251 DEB

Satellite information

Favourite Embed

Satellite Type and Status

DEBRISIN ORBIT

Key statistics

Satellite COSMOS 2251 DEB at a glance.

Uptime

11653

Days in orbit

Revolutions

≈ 14.4

Per day

Orbit

LEO

Low Earth Orbit

Inclination

74.0

Latest

Satellite identification and parameters

Extended collection of information and parameters for COSMOS 2251 DEB.

Object identification

Identified? True

Debris? True

Object name: COSMOS 2251 DEB

International designator: 1993-036AHP

Object number (NORAD): 35060

Object ID (CCSDS): 35060

Country: COMMONWEALTH OF INDEPENDENT STATES (CIS)

Current information (Y/N): Y

RCS size: SMALL

Orbital parameters

Period: 99.926 minutes

Inclination: 74.0359 deg

SMA: 7133.111 km

Apoapsis: 767.749 km

Periapsis: 742.204 km

RAAN: 284.0993 deg

Eccentricy: 0.0017906

Argument of periapsis: 67.0795 deg

Mean anomaly: 293.2248 deg

Mean motion: 14.41067352 rev/day

Mean motion (dot): 0.0000121 rev/day2

B* drag term: 0.00038345 1/REarth

Two-line elements (TLE)

Creation date: May 11, 2025, 2:40 a.m.

Reference frame: TEME

Reference center: EARTH

Epoch: May 10, 2025, 7:35 p.m. UTC

TLE line 0: 0 COSMOS 2251 DEB

TLE line 1: 1 35060U 93036AHP 25130.81606306 .00001210 00000-0 38345-3 0 9996

TLE line 2: 2 35060 74.0359 284.0993 0017906 67.0795 293.2248 14.41067352841316

Live tracking on map

Real-time ground track for satellite COSMOS 2251 DEB.

In-orbit conjunctions

A list of the most updated potential collisions computed for object COSMOS 2251 DEB.

Target Orbit TCA Probability of collision Miss distance Type
DELTA 1 R/B SSO 2025-03-15 01:07:00 0.0001811484 105.0 (m) ROCKET BODY
NOAA 16 DEB SSO 2024-11-12 15:20:16 0.0001496073 167.0 (m) DEBRIS

Associated space launch

Military communications satellite. Destroyed in a collision with Iridium 33.

COSMOS 2251 DEB was lifted into orbit during the mission ‘Kosmos-3M | Strela-2M 51’, on board a Kosmos-3M space rocket.

The launch took place on June 16, 1993, 4:17 a.m. from 132/1 (132L).

For more information about the launch, click the button.

Launch to space Kosmos-3M | Strela-2M 51
Kosmos-3M | Strela-2M 51

Agency: N/A

Status: Launch Successful

Launch date: June 16, 1993, 4:17 a.m. UTC

Rocket: Kosmos-3M

Launch pad: 132/1 (132L)

Location: Plesetsk Cosmodrome, Russian Federation

...

Latest news about this satellite

There are no fresh news available about this satellite. Check back as we update our databases every day.


Newsletter sign-up

Weekly statistics, charts and insights to help you stay on top of the space industry.